TimeCDT,TemperatureF,Dew PointF,Humidity,Sea Level PressureIn,VisibilityMPH,Wind Direction,Wind SpeedMPH,Gust SpeedMPH,PrecipitationIn,Events,Conditions,WindDirDegrees,DateUTC
12:15 AM,72.5,69.4,90,30.09,10.0,SSW,4.6,-,N/A,,Unknown,200,2013-07-08 05:15:00
12:35 AM,72.3,69.1,89,30.09,10.0,SSW,4.6,-,N/A,,Unknown,210,2013-07-08 05:35:00
1:15 AM,72.1,69.1,90,30.09,10.0,SSW,4.6,-,N/A,,Unknown,200,2013-07-08 06:15:00
1:35 AM,71.4,68.9,92,30.09,10.0,SSW,3.5,-,N/A,,Unknown,200,2013-07-08 06:35:00
1:55 AM,70.9,68.4,92,30.09,10.0,South,4.6,-,N/A,,Unknown,190,2013-07-08 06:55:00
2:32 AM,69.8,68.0,94,30.08,10.0,South,4.6,-,N/A,,Unknown,180,2013-07-08 07:32:00
2:55 AM,69.8,68.0,94,30.08,7.0,South,3.5,-,N/A,,Unknown,190,2013-07-08 07:55:00
3:15 AM,69.8,68.0,94,30.07,10.0,South,4.6,-,N/A,,Unknown,180,2013-07-08 08:15:00
3:35 AM,69.8,68.0,94,30.07,7.0,SSW,3.5,-,N/A,,Unknown,200,2013-07-08 08:35:00
3:55 AM,69.6,68.0,95,30.07,7.0,South,4.6,-,N/A,,Unknown,190,2013-07-08 08:55:00
4:15 AM,69.8,67.6,93,30.07,10.0,South,4.6,-,N/A,,Unknown,190,2013-07-08 09:15:00
4:35 AM,69.8,67.5,92,30.07,10.0,South,4.6,-,N/A,,Unknown,180,2013-07-08 09:35:00
4:55 AM,69.6,67.5,93,30.08,10.0,SSW,4.6,-,N/A,,Unknown,210,2013-07-08 09:55:00
5:15 AM,68.9,67.1,94,30.08,7.0,SSW,4.6,-,N/A,,Unknown,210,2013-07-08 10:15:00
5:55 AM,68.9,67.1,94,30.10,7.0,SSW,3.5,-,N/A,,Unknown,210,2013-07-08 10:55:00
6:15 AM,68.9,67.5,95,30.10,7.0,South,3.5,-,N/A,,Unknown,190,2013-07-08 11:15:00
6:35 AM,70.3,68.5,94,30.11,7.0,South,3.5,-,N/A,,Unknown,190,2013-07-08 11:35:00
6:55 AM,72.0,69.8,93,30.11,10.0,SSW,3.5,-,N/A,,Unknown,210,2013-07-08 11:55:00
7:15 AM,73.4,70.0,89,30.10,10.0,SSW,5.8,-,N/A,,Unknown,200,2013-07-08 12:15:00
7:35 AM,75.2,70.5,85,30.10,10.0,South,6.9,-,N/A,,Unknown,190,2013-07-08 12:35:00
7:55 AM,76.6,70.5,81,30.11,10.0,SSW,6.9,-,N/A,,Unknown,210,2013-07-08 12:55:00
8:15 AM,77.9,70.3,77,30.11,10.0,SW,8.1,-,N/A,,Unknown,220,2013-07-08 13:15:00
8:35 AM,79.2,70.5,75,30.12,10.0,SW,8.1,-,N/A,,Unknown,230,2013-07-08 13:35:00
8:55 AM,79.7,70.9,74,30.12,10.0,SW,8.1,-,N/A,,Unknown,230,2013-07-08 13:55:00
9:15 AM,80.8,71.1,72,30.13,10.0,WSW,10.4,-,N/A,,Unknown,240,2013-07-08 14:15:00
9:35 AM,81.5,71.1,70,30.12,10.0,SW,11.5,-,N/A,,Unknown,230,2013-07-08 14:35:00
9:55 AM,82.8,71.6,69,30.13,10.0,SW,10.4,-,N/A,,Unknown,220,2013-07-08 14:55:00
10:15 AM,83.5,71.8,68,30.14,10.0,SW,8.1,-,N/A,,Unknown,220,2013-07-08 15:15:00
10:35 AM,84.0,71.1,65,30.14,10.0,WSW,12.7,16.1,N/A,,Unknown,240,2013-07-08 15:35:00
10:55 AM,84.2,70.9,64,30.14,10.0,WSW,10.4,16.1,N/A,,Unknown,240,2013-07-08 15:55:00
11:15 AM,84.6,70.9,63,30.14,10.0,SW,8.1,-,N/A,,Unknown,230,2013-07-08 16:15:00
11:35 AM,85.1,71.1,63,30.14,10.0,SW,9.2,-,N/A,,Clear,230,2013-07-08 16:35:00
11:55 AM,86.0,71.4,62,30.14,10.0,SW,6.9,-,N/A,,Clear,230,2013-07-08 16:55:00
12:15 PM,86.0,71.8,62,30.13,10.0,South,9.2,-,N/A,,Clear,190,2013-07-08 17:15:00
12:35 PM,86.2,71.4,61,30.12,10.0,South,8.1,-,N/A,,Clear,190,2013-07-08 17:35:00
12:55 PM,86.0,70.7,60,30.12,10.0,SSW,6.9,-,N/A,,Clear,210,2013-07-08 17:55:00
1:15 PM,86.2,71.6,62,30.11,10.0,SSW,6.9,-,N/A,,Clear,210,2013-07-08 18:15:00
1:35 PM,86.0,71.8,62,30.10,10.0,SW,9.2,-,N/A,,Clear,220,2013-07-08 18:35:00
1:55 PM,87.8,72.3,60,30.10,10.0,SSW,10.4,-,N/A,,Clear,200,2013-07-08 18:55:00
2:15 PM,87.8,71.2,58,30.10,10.0,SSW,11.5,16.1,N/A,,Clear,210,2013-07-08 19:15:00
2:35 PM,86.9,70.0,57,30.09,10.0,SSW,12.7,-,N/A,,Clear,200,2013-07-08 19:35:00
2:55 PM,86.5,70.0,58,30.08,10.0,SSW,10.4,-,N/A,,Clear,210,2013-07-08 19:55:00
3:15 PM,85.5,71.1,62,30.08,10.0,SSW,8.1,16.1,N/A,,Unknown,200,2013-07-08 20:15:00
3:35 PM,86.9,70.7,58,30.07,10.0,SSW,10.4,-,N/A,,Clear,210,2013-07-08 20:35:00
3:55 PM,86.2,71.2,61,30.07,10.0,SSW,12.7,-,N/A,,Unknown,200,2013-07-08 20:55:00
4:15 PM,86.9,70.2,57,30.07,10.0,SSW,10.4,-,N/A,,Clear,200,2013-07-08 21:15:00
4:35 PM,87.1,70.9,58,30.06,10.0,South,10.4,-,N/A,,Unknown,190,2013-07-08 21:35:00
4:55 PM,88.0,69.8,55,30.05,10.0,SSW,10.4,-,N/A,,Unknown,200,2013-07-08 21:55:00
5:15 PM,87.1,68.7,54,30.05,10.0,SW,11.5,-,N/A,,Unknown,220,2013-07-08 22:15:00
5:35 PM,86.0,70.7,60,30.05,10.0,WSW,6.9,-,N/A,,Unknown,240,2013-07-08 22:35:00
5:55 PM,86.5,71.2,60,30.05,10.0,SW,5.8,-,N/A,,Unknown,220,2013-07-08 22:55:00
6:15 PM,87.1,69.8,56,30.05,10.0,SW,13.8,-,N/A,,Unknown,230,2013-07-08 23:15:00
6:35 PM,86.4,68.2,54,30.05,10.0,SW,8.1,-,N/A,,Unknown,230,2013-07-08 23:35:00
6:55 PM,85.3,69.3,59,30.05,10.0,SW,8.1,-,N/A,,Unknown,220,2013-07-08 23:55:00
7:15 PM,83.7,70.2,64,30.05,10.0,SW,8.1,-,N/A,,Unknown,220,2013-07-09 00:15:00
7:35 PM,82.4,71.1,68,30.05,10.0,SSW,5.8,-,N/A,,Unknown,210,2013-07-09 00:35:00
7:55 PM,81.7,70.7,69,30.05,10.0,SSW,5.8,-,N/A,,Unknown,210,2013-07-09 00:55:00
8:15 PM,81.0,70.3,70,30.05,10.0,South,6.9,-,N/A,,Unknown,190,2013-07-09 01:15:00
8:35 PM,80.8,70.7,71,30.05,10.0,SSW,4.6,-,N/A,,Unknown,200,2013-07-09 01:35:00
8:55 PM,79.3,70.7,75,30.05,10.0,South,4.6,-,N/A,,Unknown,180,2013-07-09 01:55:00
9:15 PM,79.2,71.6,78,30.06,10.0,SSW,5.8,-,N/A,,Unknown,200,2013-07-09 02:15:00
9:35 PM,78.3,70.9,78,30.07,10.0,South,4.6,-,N/A,,Unknown,190,2013-07-09 02:35:00
9:55 PM,77.4,71.1,81,30.07,10.0,South,4.6,-,N/A,,Unknown,190,2013-07-09 02:55:00
10:15 PM,77.4,70.9,80,30.07,10.0,South,4.6,-,N/A,,Unknown,190,2013-07-09 03:15:00
10:35 PM,77.4,70.7,80,30.07,10.0,South,5.8,-,N/A,,Unknown,180,2013-07-09 03:35:00
10:55 PM,77.2,71.2,82,30.07,10.0,South,4.6,-,N/A,,Unknown,190,2013-07-09 03:55:00
11:15 PM,77.0,71.1,82,30.07,10.0,South,4.6,-,N/A,,Unknown,190,2013-07-09 04:15:00
11:35 PM,77.2,71.2,82,30.08,10.0,South,3.5,-,N/A,,Unknown,190,2013-07-09 04:35:00
11:55 PM,77.0,71.1,82,30.08,10.0,South,4.6,-,N/A,,Unknown,180,2013-07-09 04:55:00